Regional Weather Roundup
Issued by NWS

Home | Current Version | Previous Version | Graphics & Text | Print | Product List | Glossary On
Versions: 1 2 3 4 5 6 7 8 9 10 11 12 13 14 15 16 17 18 19 20 21 22 23 24 25 26 27 28 29 30 31 32 33 34 35 36 37 38 39 40 41 42 43 44 45 46 47 48 49 50
000
ASUS43 KBIS 222120
RWRND

NORTH DAKOTA REGIONAL WEATHER ROUNDUP
NATIONAL WEATHER SERVICE BISMARCK ND
300 PM CST MON DEC 22 2014

NOTE: "FAIR" INDICATES FEW OR NO CLOUDS BELOW 12,000 FEET WITH NO
SIGNIFICANT WEATHER AND/OR OBSTRUCTIONS TO VISIBILITY.


NDZ001>003-009>011-017-222200-
NORTHWEST NORTH DAKOTA

CITY           SKY/WX    TMP DP  RH WIND       PRES   REMARKS
WILLISTON      CLOUDY    27  22  81 N14       29.67R WCI  16
MINOT          CLOUDY    28  25  88 NW13      29.60R WCI  17
MINOT AFB      CLOUDY    28  28 100 NW10      29.62R WCI  19
$$

NDZ018>021-031>035-040>046-222200-
SOUTHWEST NORTH DAKOTA

CITY           SKY/WX    TMP DP  RH WIND       PRES   REMARKS
BISMARCK       CLOUDY    31  30  96 N13       29.53R
DICKINSON      SNOW      26  23  88 NW17      29.57R VSB 1/2 WCI  13
GARRISON         N/A     29  27  92 N10       29.58R WCI  20
HETTINGER ARPT LGT SNOW  26  21  81 NW26G38   29.56R WCI  10
$$

NDZ004>008-012>016-024-026-027-054-222200-
NORTHEAST NORTH DAKOTA

CITY           SKY/WX    TMP DP  RH WIND       PRES   REMARKS
GRAND FORKS    LGT RAIN  37  36  96 CALM      29.56R FOG
GRND FRKS AFB  LGT RAIN  36  36 100 E6        29.57R
DEVILS LAKE    CLOUDY    34  32  93 NE12      29.55R
$$

NDZ022-023-025-028>030-036>039-047>053-222200-
SOUTHEAST NORTH DAKOTA

CITY           SKY/WX    TMP DP  RH WIND       PRES   REMARKS
FARGO          CLOUDY    41  38  89 E12       29.51R
JAMESTOWN      MIX PCPN  34  32  92 NE10      29.49R FOG
$$




USA.gov is the U.S. government's official web portal to all federal, state and local government web resources and services.